Location: Ciserano
(45.5833°N, 9.6000°E)
Time: 01:01:02
(UTC+00:00)

SJ 16-02 - Pass Details

Date: 21 April 2021
Orbit: 605 x 617 km, 75.0° (Epoch: 10 May)

Event Time Altitude Azimuth Distance (km) Brightness Sun altitude
Exits shadow 02:02:13 23° 300° (WNW) 1,334 2.9 -22.0°
Maximum altitude 02:02:19 23° 302° (WNW) 1,334 2.9 -21.9°
Drops below altitude 10° 02:05:51 10° 354° (N) 1,988 4.5 -21.5°
Sets 02:08:31 0° 10° (N) 2,900 5.7 -21.2°
